1515945601.13,4370,9.63,73320.8,-14.35,-47.09,-47.09,0,*53
1515945602.39,4371,9.69,73328.0,-14.35,-47.03,-47.09,0,*58
1515945603.64,4372,9.63,73324.5,-14.35,-47.03,-47.09,0,*5B
1515945604.88,4373,9.69,73324.3,-14.37,-47.03,-47.09,0,*58
1515945606.16,4374,9.69,73328.5,-14.35,-47.03,-47.03,0,*57
1515945607.41,4375,9.63,73326.8,-14.37,-47.09,-47.23,0,*5C
1515945608.68,4376,9.69,73326.5,-14.35,-47.09,-47.23,0,*5D
1515945609.94,4377,9.69,73326.8,-14.37,-47.03,-47.03,0,*56
1515945611.18,4378,9.63,73326.8,-14.37,-47.03,-47.09,0,*53
1515945612.45,4379,9.69,73328.8,-14.37,-47.23,-47.23,0,*58
1515945613.7,4380,9.63,73326.8,-14.37,-47.09,-47.23,0,*56
1515945614.92,4381,9.69,73328.3,-14.37,-47.09,-47.31,0,*54
1515945616.2,4382,9.69,73326.0,-14.37,-47.23,-47.23,0,*5C
1515945617.44,4383,9.69,73326.5,-14.37,-47.23,-47.31,0,*5E
1515945618.71,4384,9.63,73324.8,-14.35,-47.09,-47.23,0,*50
1515945619.95,4385,9.69,73326.0,-14.39,-46.97,-47.09,0,*53
1515945621.2,4386,9.63,73324.3,-14.39,-46.97,-47.09,0,*50
1515945622.47,4387,9.69,73326.0,-14.39,-46.97,-46.89,0,*58
1515945623.72,4388,9.69,73324.5,-14.37,-46.89,-47.09,0,*5F
1515945624.96,4389,9.69,73326.5,-14.37,-47.03,-47.09,0,*5D
1515945626.2,4390,9.69,73326.5,-14.37,-47.03,-47.09,0,*55
1515945627.44,4391,9.63,73324.0,-14.37,-47.03,-47.09,0,*54
1515945628.68,4392,9.63,73324.3,-14.37,-47.03,-47.09,0,*57
1515945629.92,4393,9.69,73328.0,-14.39,-47.09,-47.17,0,*5D
1515945631.16,4394,9.69,73328.3,-14.39,-47.09,-47.09,0,*55
1515945632.4,4395,9.63,73324.5,-14.37,-47.03,-47.09,0,*50
1515945633.64,4396,9.63,73326.3,-14.43,-47.09,-47.17,0,*55
1515945634.89,4397,9.63,73324.0,-14.39,-47.31,-47.31,0,*56
1515945636.14,4398,9.69,73324.8,-14.39,-47.17,-47.31,0,*5D
1515945637.38,4399,9.63,73324.5,-14.39,-47.17,-47.31,0,*5C
1515945638.65,4400,9.63,73326.8,-14.39,-47.31,-47.37,0,*59
1515945639.89,4401,9.63,73324.5,-14.39,-47.17,-47.17,0,*5E
1515945641.13,4402,9.63,73326.3,-14.43,-47.17,-47.31,0,*54
1515945642.37,4403,9.63,73324.8,-14.39,-47.17,-47.17,0,*5C
1515945643.61,4404,9.63,73326.5,-14.43,-47.09,-47.17,0,*59
1515945644.85,4405,9.69,73328.8,-14.39,-47.17,-47.17,0,*5A
1515945646.08,4406,9.63,73326.5,-14.43,-47.17,-47.17,0,*54
1515945647.33,4407,9.69,73328.5,-14.43,-46.97,-47.09,0,*53
1515945648.57,4408,9.63,73326.0,-14.39,-47.09,-47.17,0,*58
1515945649.84,4409,9.63,73324.0,-14.43,-46.97,-46.89,0,*54
1515945651.09,4410,9.69,73326.0,-14.39,-47.09,-46.97,0,*58
1515945652.33,4411,9.63,73324.8,-14.43,-46.97,-46.97,0,*52
1515945653.61,4412,9.69,73328.3,-14.43,-46.97,-46.89,0,*5E
1515945654.86,4413,9.69,73330.5,-14.43,-46.97,-46.97,0,*50
1515945656.1,4414,9.63,73326.0,-14.39,-46.97,-46.97,0,*5A
1515945657.38,4415,9.63,73326.5,-14.43,-46.89,-46.75,0,*55
1515945658.65,4416,9.63,73324.8,-14.43,-46.89,-46.97,0,*5A
1515945659.95,4417,9.69,73326.0,-14.43,-46.89,-46.89,0,*54
1515945661.2,4418,9.63,73326.8,-14.39,-46.97,-46.97,0,*56
1515945662.44,4419,9.63,73324.0,-14.43,-46.97,-46.97,0,*5A
1515945663.69,4420,9.63,73324.5,-14.39,-46.97,-46.97,0,*5D
1515945664.96,4421,9.69,73328.8,-14.39,-46.89,-47.09,0,*55
1515945666.2,4422,9.63,73326.8,-14.39,-47.09,-47.09,0,*5F
1515945667.44,4423,9.63,73326.0,-14.39,-47.09,-47.09,0,*5E
1515945668.68,4424,9.63,73326.3,-14.43,-47.09,-47.17,0,*5B
1515945669.92,4425,9.63,73324.3,-14.43,-47.09,-47.17,0,*5A
1515945671.17,4426,9.63,73324.0,-14.43,-46.97,-47.09,0,*50
1515945672.41,4427,9.63,73326.5,-14.43,-47.09,-47.09,0,*57
1515945673.65,4428,9.63,73326.0,-14.43,-47.09,-47.09,0,*58
1515945674.9,4429,9.63,73326.8,-14.43,-46.97,-47.09,0,*5F
1515945676.14,4430,9.63,73328.0,-14.43,-46.97,-47.09,0,*57
1515945677.38,4431,9.69,73328.3,-14.43,-46.97,-47.17,0,*59
1515945678.63,4432,9.63,73326.8,-14.43,-46.97,-47.09,0,*55
1515945679.87,4433,9.63,73328.3,-14.39,-47.17,-47.17,0,*5F
1515945681.11,4434,9.63,73326.5,-14.43,-47.09,-47.09,0,*55
1515945682.38,4435,9.63,73330.0,-14.39,-46.97,-46.89,0,*56
1515945683.68,4436,9.63,73324.8,-14.43,-46.89,-46.89,0,*57
1515945684.98,4437,9.63,73326.3,-14.43,-46.89,-46.89,0,*56
1515945686.28,4438,9.63,73322.8,-14.43,-46.89,-46.89,0,*59
1515945687.58,4439,9.63,73326.3,-14.43,-46.89,-46.89,0,*58
1515945688.85,4440,9.63,73326.5,-14.43,-46.89,-46.75,0,*55
1515945690.12,4441,9.63,73328.3,-14.43,-46.89,-46.75,0,*54
1515945691.42,4442,9.69,73330.3,-14.43,-46.89,-46.89,0,*54
1515945692.7,4443,9.63,73322.3,-14.43,-46.89,-46.75,0,*56
1515945693.94,4444,9.63,73328.5,-14.43,-46.75,-46.75,0,*52
1515945695.24,4445,9.63,73326.5,-14.43,-46.89,-46.69,0,*5D
1515945696.51,4446,9.69,73330.3,-14.39,-46.89,-46.75,0,*5E
1515945697.79,4447,9.63,73326.0,-14.43,-46.89,-46.75,0,*52
1515945699.03,4448,9.63,73330.3,-14.39,-46.97,-47.17,0,*5A
1515945700.28,4449,9.63,73326.3,-14.43,-46.97,-46.97,0,*5F
1515945701.58,4450,9.63,73328.3,-14.43,-46.89,-46.69,0,*59
1515945702.85,4451,9.63,73326.8,-14.43,-46.89,-46.97,0,*59
1515945704.09,4452,9.63,73324.3,-14.43,-46.97,-47.09,0,*53
1515945705.33,4453,9.63,73326.3,-14.39,-47.09,-47.09,0,*59
1515945706.57,4454,9.63,73326.0,-14.43,-47.09,-47.17,0,*5C
1515945707.82,4455,9.63,73330.0,-14.43,-46.97,-47.09,0,*54
1515945709.12,4456,9.63,73326.0,-14.43,-46.89,-46.89,0,*51
1515945710.36,4457,9.63,73326.8,-14.43,-46.97,-47.17,0,*59
1515945711.6,4458,9.63,73328.0,-14.43,-46.97,-47.17,0,*56
1515945712.85,4459,9.63,73326.8,-14.43,-47.09,-47.09,0,*5E
1515945714.09,4460,9.63,73324.8,-14.43,-46.97,-47.09,0,*52
1515945715.33,4461,9.63,73326.8,-14.43,-46.97,-47.09,0,*53
1515945716.61,4462,9.63,73328.0,-14.43,-46.97,-46.69,0,*57
1515945717.88,4463,9.63,73326.8,-14.39,-46.89,-46.97,0,*55
1515945719.15,4464,9.63,73326.8,-14.43,-46.89,-46.75,0,*53
1515945720.43,4465,9.63,73330.5,-14.43,-46.89,-46.97,0,*5E
1515945721.7,4466,9.63,73328.0,-14.43,-46.97,-46.89,0,*5D
1515945722.97,4467,9.63,73324.3,-14.43,-46.89,-46.97,0,*5C
1515945724.25,4468,9.63,73326.8,-14.43,-46.89,-46.97,0,*53
1515945725.49,4469,9.63,73324.3,-14.43,-47.09,-47.17,0,*52
1515945726.73,4470,9.63,73330.3,-14.43,-46.97,-47.09,0,*53
1515945727.98,4471,9.63,73328.8,-14.43,-46.97,-46.97,0,*54
1515945729.22,4472,9.63,73330.0,-14.43,-47.09,-47.17,0,*58
1515945730.46,4473,9.63,73328.3,-14.43,-47.17,-47.17,0,*56
1515945731.76,4474,9.63,73324.0,-14.43,-46.89,-46.89,0,*51
1515945733.05,4475,9.63,73326.8,-14.43,-46.61,-46.69,0,*58
1515945734.31,4476,9.69,73328.8,-14.43,-46.69,-46.75,0,*5E
1515945735.54,4477,9.63,73324.3,-14.45,-46.97,-46.83,0,*51
1515945736.84,4478,9.63,73328.3,-14.43,-46.89,-46.69,0,*53
1515945738.11,4479,9.63,73328.0,-14.43,-46.89,-46.75,0,*5F
1515945739.39,4480,9.63,73324.5,-14.39,-46.89,-46.97,0,*58
1515945740.66,4481,9.63,73324.0,-14.43,-46.89,-46.75,0,*58
1515945741.94,4482,9.63,73324.3,-14.43,-46.89,-46.75,0,*5B
1515945743.2,4483,9.63,73326.5,-14.43,-46.75,-46.89,0,*5A
1515945744.5,4484,9.69,73330.5,-14.43,-46.89,-46.89,0,*5E
1515945745.77,4485,9.63,73328.0,-14.43,-46.89,-47.09,0,*56
1515945747.01,4486,9.63,73328.3,-14.43,-47.09,-47.09,0,*5C
1515945748.28,4487,9.63,73328.0,-14.43,-46.97,-46.89,0,*52
1515945749.56,4488,9.63,73326.0,-14.43,-46.89,-46.75,0,*51
1515945750.86,4489,9.63,73324.0,-14.43,-46.89,-46.89,0,*53
1515945752.1,4490,9.63,73326.0,-14.43,-46.75,-46.75,0,*5B
1515945753.37,4491,9.63,73326.5,-14.43,-46.89,-46.97,0,*55
1515945754.64,4492,9.63,73324.0,-14.43,-46.89,-46.97,0,*56
1515945755.88,4493,9.63,73324.0,-14.45,-47.03,-46.97,0,*52
1515945757.13,4494,9.63,73326.5,-14.45,-47.03,-46.97,0,*55
1515945758.37,4495,9.63,73326.3,-14.43,-46.97,-46.97,0,*5E
1515945759.62,4496,9.63,73330.0,-14.39,-46.75,-46.75,0,*50
1515945760.84,4497,9.63,73328.5,-14.45,-46.97,-46.97,0,*5A
1515945762.13,4498,9.63,73330.3,-14.43,-46.89,-46.89,0,*53
1515945763.41,4499,9.63,73330.0,-14.43,-46.89,-46.97,0,*5D
1515945764.65,4500,9.63,73324.8,-14.43,-46.97,-46.97,0,*53
1515945765.93,4501,9.63,73326.5,-14.43,-46.89,-46.75,0,*51
1515945767.19,4502,9.63,73326.3,-14.43,-46.75,-46.61,0,*54
1515945768.43,4503,9.63,73324.0,-14.43,-46.75,-46.75,0,*50
1515945769.71,4504,9.63,73326.3,-14.43,-46.89,-46.97,0,*58
1515945770.98,4505,9.63,73324.5,-14.43,-46.89,-46.97,0,*59
1515945772.25,4506,9.63,73324.8,-14.43,-46.89,-46.75,0,*56
1515945773.55,4507,9.63,73328.0,-14.43,-46.89,-46.89,0,*54
1515945774.85,4508,9.63,73324.3,-14.43,-46.89,-46.89,0,*5B
1515945776.15,4509,9.63,73326.8,-14.43,-46.89,-46.89,0,*5A
1515945777.45,4510,9.63,73326.8,-14.43,-46.89,-46.89,0,*52
1515945778.72,4511,9.63,73330.0,-14.43,-46.89,-46.97,0,*5C
1515945779.99,4512,9.63,73326.3,-14.39,-46.89,-46.97,0,*52
1515945781.27,4513,9.63,73326.0,-14.43,-46.89,-46.75,0,*52
1515945782.57,4514,9.63,73324.3,-14.43,-46.89,-46.89,0,*56
1515945783.84,4515,9.63,73326.3,-14.43,-46.89,-46.97,0,*58
1515945785.14,4516,9.63,73326.3,-14.43,-46.89,-46.89,0,*54
1515945786.38,4517,9.63,73330.5,-14.43,-46.75,-46.75,0,*55
1515945787.65,4518,9.63,73330.5,-14.39,-46.89,-46.75,0,*54
1515945788.93,4519,9.63,73328.8,-14.39,-46.97,-46.89,0,*59
1515945790.22,4520,9.63,73324.8,-14.43,-46.89,-46.89,0,*51
1515945791.52,4521,9.63,73326.0,-14.43,-46.89,-46.89,0,*50
1515945792.79,4522,9.63,73328.0,-14.43,-46.75,-46.89,0,*50
1515945794.04,4523,9.63,73330.5,-14.43,-46.97,-46.97,0,*52
1515945795.31,4524,9.63,73330.5,-14.43,-46.97,-46.89,0,*5A
1515945796.58,4525,9.63,73332.3,-14.43,-46.97,-46.89,0,*5B
1515945797.83,4526,9.63,73326.5,-14.39,-46.75,-46.75,0,*5A
1515945799.12,4527,9.63,73328.3,-14.43,-46.89,-46.89,0,*56
1515945800.37,4528,9.63,73330.8,-14.43,-46.75,-46.75,0,*59
1515945801.64,4529,9.63,73328.3,-14.43,-46.89,-46.97,0,*57
1515945802.91,4530,9.63,73330.3,-14.43,-46.89,-46.97,0,*5F
1515945804.19,4531,9.63,73326.0,-14.43,-46.89,-46.75,0,*52
1515945805.45,4532,9.63,73326.0,-14.43,-46.75,-46.89,0,*51
1515945806.71,4533,9.63,73324.3,-14.43,-46.75,-46.69,0,*5E
1515945807.96,4534,9.63,73326.8,-14.43,-46.75,-46.75,0,*54
1515945809.22,4535,9.63,73326.3,-14.43,-46.75,-46.69,0,*58
1515945810.46,4536,9.63,73324.8,-14.39,-46.75,-46.75,0,*5B
1515945811.74,4537,9.63,73326.5,-14.39,-46.89,-46.97,0,*55
1515945813.04,4538,9.63,73324.3,-14.39,-46.89,-46.89,0,*55
1515945814.3,4539,9.63,73324.8,-14.43,-46.75,-46.89,0,*5A
1515945815.6,4540,9.63,73330.0,-14.39,-46.89,-46.69,0,*54
1515945816.84,4541,9.63,73326.5,-14.39,-46.75,-46.75,0,*5B
1515945818.08,4542,9.63,73324.8,-14.39,-46.75,-46.75,0,*58
1515945819.32,4543,9.63,73328.0,-14.43,-46.75,-46.75,0,*54
1515945820.62,4544,9.63,73326.8,-14.39,-46.61,-46.69,0,*56
1515945821.91,4545,9.63,73328.0,-14.43,-46.69,-46.69,0,*52
1515945823.15,4546,9.63,73324.3,-14.43,-46.75,-46.75,0,*51
1515945824.41,4547,9.63,73324.5,-14.39,-46.75,-46.61,0,*58
1515945825.67,4548,9.63,73328.0,-14.39,-46.75,-46.69,0,*5F
1515945826.92,4549,9.63,73330.0,-14.39,-46.75,-46.75,0,*53
1515945828.18,4550,9.63,73326.3,-14.39,-46.75,-46.89,0,*58
1515945829.42,4551,9.63,73326.5,-14.39,-46.75,-46.75,0,*5A
1515945830.72,4552,9.63,73328.0,-14.39,-46.89,-46.89,0,*59
1515945832.02,4553,9.63,73326.0,-14.39,-46.89,-46.89,0,*58
1515945833.26,4554,9.63,73328.8,-14.39,-46.75,-46.75,0,*5F
1515945834.53,4555,9.63,73328.3,-14.39,-46.75,-46.89,0,*5D
1515945835.77,4556,9.63,73328.0,-14.43,-46.75,-46.75,0,*50
1515945837.03,4557,9.63,73326.5,-14.39,-46.75,-46.69,0,*51
1515945838.3,4558,9.63,73326.0,-14.39,-46.69,-46.75,0,*5E
1515945839.58,4559,9.63,73330.0,-14.39,-46.89,-46.75,0,*51
1515945840.84,4560,9.63,73326.3,-14.43,-46.75,-46.69,0,*58
1515945842.11,4561,9.63,73324.0,-14.39,-46.75,-46.69,0,*54
1515945843.35,4562,9.63,73328.5,-14.39,-46.75,-46.75,0,*5A
1515945844.65,4563,9.63,73328.3,-14.39,-46.89,-46.69,0,*55
1515945845.91,4564,9.63,73326.5,-14.39,-46.75,-46.69,0,*51
1515945847.16,4565,9.63,73326.0,-14.37,-46.69,-46.83,0,*57
1515945848.43,4566,9.63,73326.0,-14.37,-46.69,-46.69,0,*50
1515945849.69,4567,9.63,73324.5,-14.37,-46.69,-46.61,0,*59
1515945850.96,4568,9.63,73324.5,-14.37,-46.69,-46.61,0,*56
1515945852.22,4569,9.63,73330.3,-14.39,-46.75,-46.69,0,*5C
1515945853.49,4570,9.63,73326.3,-14.37,-46.61,-46.61,0,*57
1515945854.76,4571,9.63,73326.5,-14.37,-46.61,-46.61,0,*56
1515945856.02,4572,9.63,73328.3,-14.37,-46.69,-46.61,0,*5D
1515945857.3,4573,9.63,73330.8,-14.35,-46.69,-46.69,0,*56
1515945858.55,4574,9.63,73328.3,-14.37,-46.83,-46.69,0,*57
1515945859.78,4575,9.63,73330.0,-14.37,-46.83,-46.83,0,*52
1515945861.01,4576,9.63,73332.5,-14.37,-46.83,-46.83,0,*51
1515945862.27,4577,9.63,73326.5,-14.37,-46.89,-46.83,0,*5A
1515945863.56,4578,9.63,73330.0,-14.35,-46.89,-46.89,0,*5D
1515945864.82,4579,9.63,73330.0,-14.37,-46.89,-46.83,0,*54
1515945866.07,4580,9.63,73324.5,-14.37,-46.83,-46.89,0,*52
1515945867.33,4581,9.63,73328.0,-14.37,-46.69,-46.69,0,*59
1515945868.6,4582,9.63,73326.3,-14.37,-46.69,-46.69,0,*5A
1515945869.83,4583,9.63,73330.3,-14.37,-46.83,-46.83,0,*5B
1515945871.11,4584,9.63,73326.5,-14.39,-46.89,-46.75,0,*51
1515945872.38,4585,9.63,73330.3,-14.39,-46.89,-46.75,0,*50
1515945873.62,4586,9.63,73324.5,-14.39,-46.75,-46.75,0,*50
1515945874.89,4587,9.63,73328.8,-14.37,-46.69,-46.61,0,*57
1515945876.14,4588,9.63,73326.5,-14.37,-46.83,-46.69,0,*54
1515945877.42,4589,9.63,73330.5,-14.35,-46.69,-46.61,0,*5B
1515945878.69,4590,9.63,73330.8,-14.37,-46.69,-46.69,0,*59
1515945879.96,4591,9.63,73324.5,-14.37,-46.69,-46.69,0,*58
1515945881.22,4592,9.63,73326.3,-14.37,-46.69,-46.69,0,*5B
1515945882.47,4593,9.63,73330.5,-14.37,-46.83,-46.69,0,*5E
1515945883.7,4594,9.63,73328.5,-14.37,-46.83,-46.83,0,*5D
1515945884.95,4595,9.63,73328.0,-14.37,-46.83,-46.89,0,*56
1515945886.2,4596,9.63,73328.5,-14.37,-46.83,-46.89,0,*55
1515945887.45,4597,9.63,73326.8,-14.37,-46.83,-46.89,0,*54
1515945888.72,4598,9.63,73328.5,-14.37,-46.69,-46.69,0,*51
1515945889.99,4599,9.63,73330.3,-14.37,-46.61,-46.69,0,*58
1515945891.25,4600,9.63,73326.5,-14.37,-46.61,-46.61,0,*53
1515945892.54,4601,9.63,73328.8,-14.35,-46.69,-46.69,0,*50
1515945893.76,4602,9.63,73326.8,-14.37,-46.83,-46.83,0,*51
1515945895.01,4603,9.63,73326.5,-14.37,-46.83,-46.89,0,*5A
1515945896.26,4604,9.63,73328.0,-14.37,-46.83,-46.89,0,*5D
1515945897.53,4605,9.63,73328.3,-14.35,-46.69,-46.83,0,*50
1515945898.8,4606,9.63,73324.5,-14.37,-46.69,-46.61,0,*5D
1515945900.06,4607,9.63,73330.5,-14.37,-46.69,-46.69,0,*54
1515945901.31,4608,9.63,73330.0,-14.35,-46.83,-46.83,0,*59
1515945902.56,4609,9.63,73328.5,-14.37,-46.83,-46.69,0,*5E
1515945903.8,4610,9.63,73326.3,-14.35,-46.83,-46.83,0,*50
1515945905.05,4611,9.63,73328.8,-14.35,-46.83,-46.83,0,*51
1515945906.28,4612,9.63,73328.3,-14.37,-46.83,-46.83,0,*50
1515945907.54,4613,9.63,73328.0,-14.35,-46.69,-46.83,0,*57
1515945908.83,4614,9.63,73326.3,-14.35,-46.69,-46.69,0,*54
1515945910.11,4615,9.63,73330.8,-14.35,-46.69,-46.69,0,*55
1515945911.38,4616,9.63,73328.0,-14.37,-46.69,-46.69,0,*54
1515945912.67,4617,9.63,73324.0,-14.35,-46.69,-46.69,0,*57
1515945913.93,4618,9.63,73328.8,-14.35,-46.83,-46.89,0,*52
1515945915.2,4619,9.63,73324.0,-14.35,-46.83,-46.89,0,*53
1515945916.47,4620,9.63,73330.0,-14.37,-46.69,-46.69,0,*51
1515945917.73,4621,9.63,73324.0,-14.37,-46.69,-46.69,0,*50
1515945919.0,4622,9.63,73326.8,-14.35,-46.83,-46.69,0,*55
1515945920.26,4623,9.63,73330.3,-14.35,-46.69,-46.83,0,*54
1515945921.53,4624,9.63,73326.5,-14.35,-46.83,-46.89,0,*5D
1515945922.79,4625,9.63,73322.0,-14.35,-46.61,-46.55,0,*51
1515945924.08,4626,9.63,73326.0,-14.35,-46.69,-46.61,0,*5D
1515945925.34,4627,9.63,73324.0,-14.37,-46.69,-46.69,0,*56
1515945926.63,4628,9.63,73328.0,-14.35,-46.69,-46.69,0,*5B
1515945927.87,4629,9.63,73324.8,-14.35,-46.83,-46.83,0,*5A
1515945929.1,4630,9.63,73328.3,-14.37,-46.83,-46.83,0,*50
1515945930.37,4631,9.63,73330.8,-14.35,-46.69,-46.83,0,*57
1515945931.64,4632,9.63,73324.8,-14.37,-46.61,-46.69,0,*5A
1515945932.9,4633,9.63,73326.8,-14.35,-46.83,-46.61,0,*5D
1515945934.15,4634,9.63,73328.5,-14.37,-46.83,-46.69,0,*50
1515945935.41,4635,9.63,73326.5,-14.33,-46.61,-46.61,0,*51
1515945936.67,4636,9.63,73326.0,-14.35,-46.83,-46.61,0,*58
1515945937.92,4637,9.63,73324.3,-14.35,-46.83,-46.83,0,*55
1515945939.16,4638,9.63,73324.3,-14.35,-46.83,-46.83,0,*5A
1515945940.42,4639,9.63,73326.0,-14.37,-46.83,-46.89,0,*53
1515945941.7,4640,9.63,73324.0,-14.35,-47.03,-47.03,0,*55
1515945942.98,4641,9.63,73328.5,-14.35,-46.89,-47.03,0,*57
1515945944.25,4642,9.63,73326.0,-14.35,-46.89,-46.83,0,*5D
1515945945.52,4643,9.63,73328.5,-14.35,-46.69,-46.83,0,*52
1515945946.78,4644,9.63,73326.0,-14.35,-46.83,-46.69,0,*55
1515945948.07,4645,9.63,73324.5,-14.35,-46.69,-46.69,0,*50
1515945949.35,4646,9.63,73326.0,-14.35,-46.69,-46.69,0,*53
1515945950.62,4647,9.63,73326.8,-14.35,-46.83,-46.89,0,*58
1515945951.89,4648,9.63,73328.0,-14.35,-46.83,-46.89,0,*57
1515945953.1,4649,9.63,73328.0,-14.33,-46.75,-46.75,0,*5A
1515945954.32,4650,9.63,73330.5,-14.33,-46.75,-46.83,0,*5B
1515945955.58,4651,9.63,73326.8,-14.33,-46.61,-46.61,0,*53
1515945956.86,4652,9.63,73328.3,-14.35,-46.69,-46.69,0,*56
1515945958.13,4653,9.63,73326.8,-14.35,-46.83,-46.89,0,*5D
1515945959.35,4654,9.63,73328.3,-14.33,-46.75,-46.75,0,*56
1515945960.56,4655,9.63,73330.8,-14.33,-46.75,-46.75,0,*57
1515945961.79,4656,9.63,73324.0,-14.33,-46.83,-46.83,0,*54
1515945963.08,4657,9.63,73326.8,-14.35,-46.89,-46.89,0,*53
1515945964.3,4658,9.63,73328.8,-14.33,-46.83,-46.83,0,*5A
1515945965.53,4659,9.63,73328.0,-14.33,-46.83,-46.75,0,*52
1515945966.75,4660,9.63,73328.0,-14.33,-46.83,-46.75,0,*58
1515945967.97,4661,9.63,73324.3,-14.33,-46.83,-46.83,0,*50
1515945969.2,4662,9.63,73326.8,-14.33,-46.83,-46.83,0,*53
1515945970.46,4663,9.63,73326.0,-14.35,-46.83,-46.69,0,*50
1515945971.69,4664,9.63,73330.8,-14.37,-46.83,-46.83,0,*51
1515945972.94,4665,9.63,73326.5,-14.35,-46.83,-46.83,0,*52
1515945974.21,4666,9.63,73326.5,-14.35,-46.89,-46.83,0,*5B
1515945975.46,4667,9.63,73324.3,-14.35,-46.83,-46.83,0,*50
1515945976.75,4668,9.63,73324.0,-14.35,-46.89,-46.89,0,*5F
1515945978.0,4669,9.63,73326.8,-14.35,-46.83,-46.83,0,*5E
1515945979.23,4670,9.63,73326.5,-14.33,-46.75,-46.61,0,*55
1515945980.45,4671,9.63,73324.0,-14.33,-46.75,-46.83,0,*58
1515945981.74,4672,9.63,73330.3,-14.35,-46.89,-46.89,0,*54
1515945983.03,4673,9.63,73328.3,-14.35,-46.89,-46.89,0,*55
1515945984.26,4674,9.56,73326.8,-14.33,-46.83,-46.83,0,*54
1515945985.47,4675,9.63,73326.8,-14.33,-46.75,-46.75,0,*55
1515945986.71,4676,9.63,73326.5,-14.33,-46.75,-46.61,0,*53
1515945987.95,4677,9.63,73328.5,-14.33,-46.61,-46.55,0,*50
1515945989.22,4678,9.63,73330.5,-14.35,-46.83,-46.69,0,*5A
1515945990.46,4679,9.63,73324.5,-14.35,-46.83,-46.83,0,*5F
1515945991.73,4680,9.63,73328.5,-14.35,-46.83,-46.69,0,*5D
1515945992.99,4681,9.63,73330.0,-14.35,-46.83,-46.69,0,*5C
1515945994.26,4682,9.63,73326.0,-14.35,-46.83,-46.89,0,*51
1515945995.52,4683,9.63,73328.0,-14.35,-46.83,-46.89,0,*50
1515945996.81,4684,9.63,73324.8,-14.35,-46.69,-46.69,0,*5D
1515945998.05,4685,9.63,73330.0,-14.35,-46.83,-46.83,0,*5C
1515945999.28,4686,9.63,73330.8,-14.33,-46.83,-46.83,0,*59
1515946000.51,4687,9.63,73328.5,-14.33,-46.83,-46.83,0,*58
1515946001.73,4688,9.63,73328.8,-14.33,-46.83,-46.83,0,*57
1515946002.96,4689,9.63,73328.5,-14.33,-46.83,-46.83,0,*56
1515946004.18,4690,9.63,73326.8,-14.33,-46.83,-46.83,0,*5E
1515946005.4,4691,9.63,73326.3,-14.33,-46.75,-46.75,0,*5F
1515946006.61,4692,9.56,73324.8,-14.33,-46.75,-46.83,0,*55
1515946007.83,4693,9.63,73326.0,-14.33,-46.75,-46.75,0,*5D
1515946009.04,4694,9.63,73328.0,-14.33,-46.75,-46.75,0,*5A
1515946010.26,4695,9.63,73328.3,-14.33,-46.75,-46.75,0,*5B
1515946011.47,4696,9.63,73330.8,-14.33,-46.75,-46.75,0,*58
1515946012.69,4697,9.63,73330.3,-14.33,-46.75,-46.83,0,*50
1515946013.91,4698,9.63,73328.3,-14.33,-46.75,-46.75,0,*56
1515946015.12,4699,9.63,73326.8,-14.33,-46.75,-46.75,0,*57
1515946016.38,4700,9.63,73328.0,-14.33,-46.61,-46.61,0,*56
1515946017.62,4701,9.63,73328.8,-14.33,-46.75,-46.61,0,*52
1515946018.86,4702,9.63,73328.3,-14.33,-46.61,-46.55,0,*53
1515946020.07,4703,9.63,73328.5,-14.33,-46.75,-46.75,0,*55
1515946021.29,4704,9.63,73328.3,-14.33,-46.75,-46.75,0,*52
1515946022.5,4705,9.63,73330.3,-14.33,-46.75,-46.75,0,*53
1515946023.72,4706,9.63,73328.3,-14.33,-46.75,-46.75,0,*50
1515946024.93,4707,9.56,73326.5,-14.33,-46.75,-46.75,0,*51
1515946026.18,4708,9.63,73326.5,-14.31,-46.75,-46.83,0,*55
1515946027.4,4709,9.63,73330.0,-14.33,-46.83,-46.97,0,*5A
1515946028.62,4710,9.63,73324.0,-14.33,-46.83,-46.83,0,*57
1515946029.86,4711,9.63,73328.3,-14.33,-46.75,-46.61,0,*53
1515946031.08,4712,9.63,73330.3,-14.33,-46.75,-46.83,0,*5C
1515946032.31,4713,9.63,73326.3,-14.33,-46.75,-46.61,0,*51
1515946033.55,4714,9.63,73330.8,-14.31,-46.75,-46.75,0,*51
1515946034.79,4715,9.63,73326.5,-14.31,-46.75,-46.75,0,*50
1515946036.01,4716,9.63,73330.0,-14.33,-46.75,-46.83,0,*58
1515946037.24,4717,9.63,73326.3,-14.33,-46.97,-46.83,0,*55
1515946038.49,4718,9.63,73330.8,-14.31,-46.83,-46.75,0,*54
1515946039.73,4719,9.63,73328.8,-14.31,-46.75,-46.75,0,*5C
1515946040.94,4720,9.63,73328.8,-14.33,-46.75,-46.75,0,*54
1515946042.18,4721,9.63,73326.0,-14.31,-46.75,-46.75,0,*57
1515946043.4,4722,9.63,73326.5,-14.33,-46.75,-46.75,0,*56
1515946044.66,4723,9.63,73324.0,-14.33,-46.61,-46.61,0,*57
1515946045.88,4724,9.63,73328.5,-14.33,-46.75,-46.75,0,*50
1515946047.1,4725,9.63,73326.0,-14.33,-46.83,-46.83,0,*51
1515946048.33,4726,9.63,73328.8,-14.33,-46.83,-46.83,0,*52
1515946049.55,4727,9.63,73326.5,-14.33,-46.83,-46.75,0,*5A
1515946050.77,4728,9.63,73328.3,-14.33,-46.83,-46.83,0,*5C
1515946052.03,4729,9.63,73330.3,-14.31,-46.83,-46.83,0,*5F
1515946053.27,4730,9.56,73324.3,-14.31,-46.83,-46.75,0,*5E
1515946054.5,4731,9.56,73326.8,-14.33,-46.83,-46.83,0,*54
1515946055.75,4732,9.63,73328.0,-14.31,-46.83,-46.75,0,*5C
1515946056.97,4733,9.63,73330.8,-14.33,-46.83,-46.75,0,*5F
1515946058.19,4734,9.63,73330.8,-14.33,-46.83,-46.83,0,*51
1515946059.45,4735,9.56,73326.8,-14.31,-46.97,-46.83,0,*57
1515946060.67,4736,9.63,73328.0,-14.33,-46.83,-46.97,0,*56
1515946061.93,4737,9.63,73328.0,-14.31,-46.75,-46.61,0,*55
1515946063.19,4738,9.63,73328.8,-14.31,-46.75,-46.61,0,*5A
1515946064.43,4739,9.56,73326.0,-14.31,-46.75,-46.75,0,*5E
1515946065.64,4740,9.63,73328.5,-14.33,-46.75,-46.75,0,*52
1515946066.89,4741,9.63,73328.0,-14.31,-46.83,-46.97,0,*54
1515946068.14,4742,9.63,73330.3,-14.31,-46.75,-46.83,0,*5B
1515946069.36,4743,9.63,73328.3,-14.33,-46.83,-46.75,0,*58
1515946070.58,4744,9.63,73328.3,-14.33,-46.83,-46.75,0,*5F
1515946071.8,4745,9.63,73330.3,-14.33,-46.83,-46.97,0,*52
1515946073.02,4746,9.56,73326.0,-14.33,-46.97,-46.83,0,*51
1515946074.27,4747,9.56,73326.3,-14.31,-46.83,-46.97,0,*52
1515946075.52,4748,9.56,73326.3,-14.31,-46.83,-46.83,0,*58
1515946076.79,4749,9.56,73326.0,-14.31,-47.17,-47.23,0,*5E
1515946078.01,4750,9.63,73326.5,-14.33,-46.97,-47.17,0,*5A
1515946079.25,4751,9.63,73326.3,-14.33,-46.97,-47.03,0,*5E
1515946080.47,4752,9.63,73330.3,-14.33,-46.97,-46.97,0,*51
1515946081.71,4753,9.56,73324.5,-14.33,-46.97,-47.03,0,*5C
1515946082.95,4754,9.63,73328.8,-14.33,-46.83,-47.03,0,*5E
1515946084.2,4755,9.56,73324.5,-14.31,-46.97,-46.75,0,*58
1515946085.42,4756,9.56,73324.0,-14.33,-46.83,-46.83,0,*55
1515946086.65,4757,9.63,73328.3,-14.33,-46.83,-46.83,0,*54
1515946087.89,4758,9.63,73328.0,-14.31,-46.83,-46.97,0,*5C
1515946089.13,4759,9.63,73326.8,-14.33,-46.83,-47.03,0,*53
1515946090.37,4760,9.56,73324.3,-14.33,-46.83,-47.03,0,*59
1515946091.61,4761,9.63,73330.8,-14.31,-47.17,-47.17,0,*53
1515946092.87,4762,9.56,73324.5,-14.33,-47.03,-47.03,0,*52
1515946094.13,4763,9.63,73328.5,-14.33,-47.03,-47.03,0,*53
1515946095.39,4764,9.63,73332.8,-14.31,-47.03,-47.17,0,*53
1515946096.6,4765,9.56,73326.5,-14.33,-47.17,-47.17,0,*55
1515946097.86,4766,9.63,73330.0,-14.33,-47.03,-47.03,0,*56
1515946099.1,4767,9.63,73330.0,-14.33,-47.03,-46.97,0,*5B
1515946100.32,4768,9.63,73328.5,-14.33,-46.97,-46.97,0,*58
1515946101.57,4769,9.63,73330.8,-14.31,-46.97,-46.97,0,*5B
1515946102.83,4770,9.63,73328.5,-14.33,-47.03,-47.03,0,*51
1515946104.07,4771,9.56,73328.0,-14.33,-47.03,-46.97,0,*5C
1515946105.31,4772,9.56,73324.0,-14.33,-46.97,-47.03,0,*5F
1515946106.53,4773,9.56,73326.3,-14.33,-46.83,-46.97,0,*57
1515946107.82,4774,9.63,73330.5,-14.35,-46.89,-46.89,0,*53
1515946109.08,4775,9.56,73326.8,-14.35,-47.03,-47.09,0,*58
1515946110.37,4776,9.56,73328.8,-14.35,-46.89,-46.89,0,*51